Regional Weather Roundup
Issued by NWS

Home | Current Version | Previous Version | Graphics & Text | Print | Product List | Glossary On
Versions: 1 2 3 4 5 6 7 8 9 10 11 12 13 14 15 16 17 18 19 20 21 22 23 24 25 26 27 28 29 30 31 32 33 34 35 36 37 38 39 40 41 42 43 44 45 46 47 48 49 50
000
ASUS43 KBIS 312110
RWRND

NORTH DAKOTA REGIONAL WEATHER ROUNDUP
NATIONAL WEATHER SERVICE BISMARCK ND
400 PM CDT FRI JUL 31 2015

NOTE: "FAIR" INDICATES FEW OR NO CLOUDS BELOW 12,000 FEET WITH NO
SIGNIFICANT WEATHER AND/OR OBSTRUCTIONS TO VISIBILITY.


NDZ001>003-009>011-017-312200-
NORTHWEST NORTH DAKOTA

CITY           SKY/WX    TMP DP  RH WIND       PRES   REMARKS
WILLISTON      SUNNY     89  44  20 N10G17    30.09F
MINOT          SUNNY     81  49  32 N10       30.07F
MINOT AFB      SUNNY     84  51  31 NW13      30.06F
$$

NDZ018>021-031>035-040>046-312200-
SOUTHWEST NORTH DAKOTA

CITY           SKY/WX    TMP DP  RH WIND       PRES   REMARKS
BISMARCK       SUNNY     88  51  28 NW15      30.08F
DICKINSON      SUNNY     87  40  19 W5        30.11F
GARRISON         N/A     83  55  38 W9G23     30.09F
HETTINGER ARPT SUNNY     89  39  17 MISG      30.15F
$$

NDZ004>008-012>016-024-026-027-054-312200-
NORTHEAST NORTH DAKOTA

CITY           SKY/WX    TMP DP  RH WIND       PRES   REMARKS
GRAND FORKS    MOSUNNY   82  51  34 NW13G21   30.00F
GRND FRKS AFB  SUNNY     80  49  33 N16G23    30.02F
DEVILS LAKE    MOSUNNY   79  52  38 NW12      30.05F
$$

NDZ022-023-025-028>030-036>039-047>053-312200-
SOUTHEAST NORTH DAKOTA

CITY           SKY/WX    TMP DP  RH WIND       PRES   REMARKS
FARGO          MOSUNNY   83  54  36 NW14      30.03F
JAMESTOWN      MOSUNNY   84  52  33 W12       30.04F
$$



USA.gov is the U.S. government's official web portal to all federal, state and local government web resources and services.